EW1297 Weather Reports


time (UTC)temp
F
wind
direction
speed
knots
gust
knots
rain 1hr
in
rain 24hr
in
rain mn
in
humidity
%
barometer
mb
20260506142615 68 0.0 0.0 0.00 0.00 0.00 72 1009.4
20260506141615 68 68 0.9 2.6 0.00 0.00 0.00 71 1009.6
20260506140615 68 0.0 0.0 0.00 0.00 0.00 70 1009.6
20260506135615 68 0.0 1.7 0.00 0.00 0.00 72 1009.7
20260506134656 68 0.0 0.9 0.00 0.00 0.00 71 1009.8
20260506133615 68 0.0 1.7 0.00 0.00 0.00 72 1009.8
20260506132615 68 0.0 0.0 0.00 0.00 0.00 73 1009.7
20260506131615 67 113 0.9 4.3 0.00 0.00 0.00 73 1009.8
20260506130615 67 0.0 0.9 0.00 0.00 0.00 75 1009.7
20260506125615 66 0.0 0.9 0.00 0.00 0.00 74 1009.5
20260506124615 66 0.0 0.0 0.00 0.00 0.00 75 1009.3
20260506123615 65 0.0 0.9 0.00 0.00 0.00 77 1009.4
20260506122615 65 0.0 0.9 0.00 0.00 0.00 77 1009.5
20260506121615 65 0.0 0.9 0.00 0.00 0.00 77 1009.7
20260506120617 65 0.0 0.9 0.00 0.00 0.00 77 1009.7
20260506115615 65 45 0.9 2.6 0.00 0.00 0.00 77 1010.1
20260506114617 65 0.0 0.0 0.00 0.00 0.00 79 1010.0
20260506113615 65 68 0.9 2.6 0.00 0.00 0.00 79 1010.1
20260506112637 65 0.0 0.0 0.00 0.00 0.00 79 1009.9
20260506111617 64 0.0 0.0 0.00 0.00 0.00 80 1010.0
20260506110637 64 0.0 0.9 0.00 0.01 0.00 81 1009.8
20260506105617 63 0.0 0.0 0.00 0.01 0.00 82 1009.7
20260506104617 63 0.0 0.9 0.00 0.01 0.00 82 1009.7
20260506103617 63 68 0.9 1.7 0.00 0.01 0.00 82 1009.8
20260506102617 63 0.0 1.7 0.00 0.01 0.00 82 1009.9
20260506101617 63 0.0 0.0 0.00 0.01 0.00 83 1009.7
20260506100617 62 0.0 0.9 0.00 0.01 0.00 83 1009.6
20260506095617 62 0.0 0.9 0.00 0.01 0.00 84 1009.5
20260506094617 62 0.0 0.9 0.00 0.01 0.00 84 1009.5
20260506093617 61 0.0 0.9 0.00 0.01 0.00 84 1009.6
20260506092617 61 0.0 0.0 0.00 0.01 0.00 84 1009.6
20260506091637 61 0.0 0.0 0.00 0.01 0.00 84 1009.6
20260506090637 61 0.0 0.9 0.00 0.01 0.00 84 1009.7
20260506085617 62 0.0 0.0 0.00 0.01 0.00 83 1009.7
20260506084617 62 0.0 0.0 0.00 0.01 0.00 83 1009.8
20260506083617 62 0.0 0.0 0.00 0.01 0.00 82 1009.7
20260506082637 62 0.0 0.9 0.00 0.01 0.00 82 1009.8
20260506081617 62 0.0 0.0 0.00 0.01 0.00 81 1009.9
20260506080617 63 0.0 0.0 0.00 0.01 0.00 80 1009.9
20260506072617 63 0.0 0.9 0.00 0.01 0.00 78 1010.0
20260506071637 64 0.0 0.0 0.00 0.01 0.00 78 1010.0
20260506070617 64 0.0 0.0 0.00 0.01 0.00 77 1010.1
20260506061616 64 0.0 2.6 0.00 0.01 0.00 74 1010.2
20260506060637 64 0.0 0.9 0.00 0.01 0.00 73 1010.1
20260506050616 66 0.0 0.9 0.00 0.01 0.00 69 1010.9
20260506044616 66 0.0 1.7 0.00 0.01 0.00 68 1010.8
20260506043617 66 68 0.9 1.7 0.00 0.01 0.00 67 1010.8
20260506042616 67 225 0.9 1.7 0.00 0.01 0.00 66 1010.8
20260506041636 67 0.0 0.9 0.00 0.01 0.00 65 1010.6
20260506040617 67 0.0 1.7 0.00 0.01 0.00 65 1010.6
20260506035617 67 0.0 0.9 0.00 0.01 0.01 65 1010.6
20260506034617 67 0.0 0.0 0.00 0.01 0.01 64 1010.6
20260506033617 67 225 1.7 3.5 0.00 0.01 0.01 64 1010.6
20260506032617 68 0.0 0.0 0.00 0.01 0.01 63 1010.5
20260506031617 68 0.0 0.9 0.00 0.01 0.01 62 1010.5
20260506030637 68 0.0 0.9 0.00 0.01 0.01 62 1010.4
20260506025637 69 0 1.7 3.5 0.00 0.01 0.01 61 1010.3
20260506024616 69 0.0 0.9 0.00 0.01 0.01 61 1010.4
20260506023616 69 68 0.9 3.5 0.00 0.01 0.01 60 1010.4
20260506022616 70 0.0 1.7 0.00 0.01 0.01 59 1010.5
20260506021616 70 0.0 0.9 0.00 0.01 0.01 57 1010.4
20260506020616 71 0.0 0.9 0.00 0.01 0.01 55 1010.4
20260506015617 71 0.0 0.0 0.00 0.01 0.01 53 1010.3
20260506014617 72 0.0 1.7 0.00 0.01 0.01 51 1010.2
20260506013616 72 0.0 0.9 0.00 0.01 0.01 49 1010.1
20260506012616 73 90 0.9 2.6 0.00 0.01 0.01 48 1009.9
20260506011616 73 0.0 0.9 0.00 0.01 0.01 47 1009.8
20260506010616 73 0.0 0.9 0.00 0.01 0.01 47 1009.6
20260506005617 74 68 0.9 1.7 0.00 0.01 0.01 46 1009.6
20260506004616 74 0.0 1.7 0.00 0.01 0.01 45 1009.5
20260506003616 74 0.0 0.0 0.00 0.01 0.01 45 1009.5
20260506002617 75 248 0.9 2.6 0.00 0.01 0.01 44 1009.4
20260506001616 75 0.0 0.0 0.00 0.01 0.01 43 1009.2
20260506000616 75 0.0 0.0 0.00 0.01 0.01 41 1009.2
20260505235616 75 0.0 0.9 0.00 0.01 0.01 40 1009.0
20260505234637 76 68 0.9 3.5 0.00 0.01 0.01 38 1009.0
20260505233616 76 68 1.7 4.3 0.00 0.01 0.01 38 1008.7
20260505232616 77 0.0 0.9 0.00 0.01 0.01 37 1008.8
20260505231616 77 0.0 0.0 0.00 0.01 0.01 36 1008.7
20260505230616 77 23 0.9 2.6 0.00 0.01 0.01 35 1008.4
20260505225616 78 0.0 0.9 0.00 0.01 0.01 34 1008.4
20260505224616 78 23 0.9 2.6 0.00 0.01 0.01 34 1008.2
20260505223616 78 0.0 0.0 0.00 0.01 0.01 34 1008.1
20260505222616 79 0.0 1.7 0.00 0.01 0.01 32 1008.2
20260505221636 79 45 0.9 2.6 0.00 0.01 0.01 34 1008.1
20260505220616 79 0.0 1.7 0.00 0.01 0.01 33 1008.1
20260505215636 80 0.0 1.7 0.00 0.01 0.01 32 1007.9
20260505214656 80 0.0 1.7 0.00 0.01 0.01 32 1007.8
20260505213616 80 68 0.9 4.3 0.00 0.01 0.01 32 1007.6
20260505212616 80 68 0.9 2.6 0.00 0.01 0.01 32 1007.7
20260505211616 80 0.0 0.9 0.00 0.01 0.01 33 1007.6
20260505210657 81 68 0.9 4.3 0.00 0.01 0.01 32 1007.6
20260505205616 81 68 1.7 5.2 0.00 0.01 0.01 33 1007.7
20260505204616 81 23 0.9 2.6 0.00 0.01 0.01 33 1007.7
20260505203616 82 68 0.9 2.6 0.00 0.01 0.01 31 1007.6
20260505202616 83 0.0 0.9 0.00 0.01 0.01 33 1007.7
20260505201616 83 68 0.9 4.3 0.00 0.01 0.01 32 1007.8
20260505200636 83 90 2.6 5.2 0.00 0.01 0.01 32 1007.7
20260505195656 84 158 0.9 2.6 0.00 0.01 0.01 32 1008.1
20260505194616 84 68 1.7 4.3 0.00 0.01 0.01 32 1008.1
20260505193616 84 68 0.9 2.6 0.00 0.01 0.01 33 1008.1
20260505192616 84 180 1.7 2.6 0.00 0.01 0.01 31 1008.4
20260505191616 84 113 0.9 2.6 0.00 0.01 0.01 33 1008.5
20260505190616 84 0.0 0.9 0.00 0.01 0.01 33 1008.6
20260505185616 83 113 0.9 4.3 0.00 0.01 0.01 34 1008.8
20260505184616 83 90 3.5 7.8 0.00 0.01 0.01 34 1009.0
20260505183616 83 0.0 1.7 0.00 0.01 0.01 36 1009.1
20260505182616 83 248 1.7 7.8 0.00 0.01 0.01 35 1009.3
20260505181616 83 293 2.6 5.2 0.00 0.01 0.01 35 1009.2
20260505180616 83 0 0.9 5.2 0.00 0.01 0.01 39 1009.4
20260505175616 82 68 1.7 5.2 0.00 0.01 0.01 37 1009.2
20260505174636 83 68 0.9 1.7 0.00 0.01 0.01 38 1009.5
20260505173616 83 0.0 0.9 0.00 0.01 0.01 39 1009.5
20260505172616 82 90 0.9 1.7 0.00 0.01 0.01 41 1009.5
20260505171615 82 135 1.7 9.6 0.00 0.01 0.01 39 1009.7
20260505170616 83 135 0.9 1.7 0.00 0.01 0.01 39 1009.8
20260505165616 83 0.0 1.7 0.00 0.01 0.01 40 1010.0
20260505164636 83 45 1.7 3.5 0.00 0.01 0.01 40 1010.0
20260505163616 82 0.0 0.9 0.00 0.01 0.01 42 1010.3
20260505162616 81 0.0 0.9 0.00 0.01 0.01 42 1010.4
20260505161616 81 90 2.6 5.2 0.00 0.01 0.01 41 1010.5
20260505160616 80 0.0 0.9 0.00 0.01 0.01 44 1010.6
20260505152616 78 135 0.9 3.5 0.00 0.01 0.01 48 1011.0
20260505151616 76 0.0 1.7 0.00 0.01 0.01 48 1011.1
20260505150615 76 113 0.9 5.2 0.00 0.01 0.01 51 1011.2